This is the latest recevied weather packets stored in our database for station/object KN6WGU. If no packets are shown the sender has not sent any weather packets the latest 10 day(s).
| Time | Temp. | Humidity | Pressure | Rain* | Wind** | Luminosity | Snow |
|---|---|---|---|---|---|---|---|
| 1787871588 | 26.11° C | 62% | 1007.6 hPa | 0 mm | - | 57 W/m² | - |
| 1787871283 | 25.56° C | 64% | 1007.6 hPa | 0 mm | - | 70 W/m² | - |
| 1787870978 | 25° C | 66% | 1007.6 hPa | 0 mm | - | 81 W/m² | - |
| 1787870677 | 25° C | 66% | 1007.6 hPa | 0 mm | - | 38 W/m² | - |
| 1787870372 | 25° C | 67% | 1007.6 hPa | 0 mm | - | 65 W/m² | - |
| 1787870068 | 25° C | 66% | 1007.5 hPa | 0 mm | - | 34 W/m² | - |
| 1787869766 | 25° C | 65% | 1007.4 hPa | 0 mm | - | 35 W/m² | - |
| 1787869462 | 24.44° C | 67% | 1007.4 hPa | 0 mm | - | 35 W/m² | - |
| 1787869156 | 24.44° C | 66% | 1007.6 hPa | 0 mm | - | 36 W/m² | - |
| 1787868856 | 24.44° C | 66% | 1007.6 hPa | 0 mm | - | 36 W/m² | - |
| 1787868554 | 25° C | 66% | 1007.8 hPa | 0 mm | - | 37 W/m² | - |
| 1787868253 | 25° C | 66% | 1007.6 hPa | 0 mm | - | 38 W/m² | - |
| 1787867948 | 25° C | 67% | 1007.5 hPa | 0 mm | - | 55 W/m² | - |
| 1787867644 | 25° C | 67% | 1007.3 hPa | 0 mm | - | 39 W/m² | - |
| 1787867338 | 25° C | 67% | 1007.5 hPa | 0 mm | - | 43 W/m² | - |
| 1787867034 | 25° C | 67% | 1007.5 hPa | 0 mm | - | 40 W/m² | - |
| 1787866729 | 25° C | 68% | 1007.5 hPa | 0 mm | - | 40 W/m² | - |
| 1787866428 | 25° C | 68% | 1007.4 hPa | 0 mm | - | 41 W/m² | - |
| 1787866123 | 25° C | 67% | 1007.5 hPa | 0 mm | - | 43 W/m² | - |
| 1787865823 | 25° C | 69% | 1007.4 hPa | 0 mm | - | 43 W/m² | - |
| 1787865518 | 25° C | 68% | 1007.6 hPa | 0 mm | - | 46 W/m² | - |
| 1787865213 | 25° C | 68% | 1007.4 hPa | 0 mm | - | 50 W/m² | - |
| 1787864910 | 25° C | 70% | 1007.5 hPa | 0 mm | - | 46 W/m² | - |
| 1787864604 | 25° C | 69% | 1007.5 hPa | 0 mm | - | 69 W/m² | - |
| 1787864298 | 25.56° C | 68% | 1007.6 hPa | 0 mm | - | 47 W/m² | - |
* Rain latest hour (hover to see other rain measurements)
** Current wind speed in m/s (hover to see current wind gust speed)